Simultaneous Nadir Overpasses (SNOs) Predictions

Prediction of SNOs between NOAA-15 and METOP-C Satellite Orbit:

Table of predicted SNOs for the next 14.0 days since TLE Epoch: 10/28/2023
Index Date (NOAA-15) Time (NOAA-15) Lat,Lon (NOAA-15) SZA (NOAA-15 ) Date (METOP-C) Time (METOP-C) Lat,Lon (METOP-C) SZA (METOP-C ) Distance(km) Time Diff (sec)
1 10/28/2023 01:38:42 -81.07, 13.82 83.70 10/28/2023 01:37:30 -81.07, 13.90 83.73 1.45 72
2 10/28/2023 02:29:11 81.07,-178.71 96.32 10/28/2023 02:28:10 81.06,-178.86 96.28 2.61 61
3 10/28/2023 03:19:42 -81.06, -11.21 83.66 10/28/2023 03:18:51 -81.08, -11.22 83.68 1.56 51
4 10/28/2023 04:10:12 81.07, 155.90 96.34 10/28/2023 04:09:31 81.07, 156.02 96.33 2.21 41
5 10/28/2023 05:00:43 -81.07, -36.61 83.65 10/28/2023 05:00:13 -81.07, -36.71 83.67 1.71 30
6 10/28/2023 05:51:13 81.08, 130.50 96.35 10/28/2023 05:50:53 81.07, 130.53 96.33 1.67 20
7 10/28/2023 06:41:44 -81.08, -62.01 83.64 10/28/2023 06:41:34 -81.08, -61.83 83.62 3.17 10
8 10/28/2023 07:32:13 81.07, 105.47 96.39 10/28/2023 07:32:14 81.07, 105.41 96.39 1.16 1
9 10/28/2023 08:22:45 -81.08, -87.41 83.62 10/28/2023 08:22:56 -81.07, -87.32 83.62 1.93 11
10 10/28/2023 09:13:14 81.08, 80.07 96.40 10/28/2023 09:13:36 81.07, 79.92 96.39 2.86 22
11 10/28/2023 10:03:45 -81.07,-112.45 83.58 10/28/2023 10:04:17 -81.08,-112.44 83.56 0.95 32
12 10/28/2023 10:54:15 81.08, 54.68 96.42 10/28/2023 10:54:57 81.08, 54.80 96.44 2.19 42
13 10/28/2023 11:44:46 -81.08,-137.85 83.57 10/28/2023 11:45:39 -81.07,-137.93 83.56 1.52 53
14 10/28/2023 12:35:15 81.07, 29.65 96.45 10/28/2023 12:36:18 81.08, 29.68 96.49 1.41 63



Historial Predications of SNOs between NOAA-15 and METOP-C
